[[{"header":{"parameterUnit":"m.s-1","parameterCategory":1,"la1":30.2991,"la2":30.254,"lo1":-89.0895,"lo2":-89.0444,"dy":0.0017,"dx":0.0017,"nx":28,"ny":28,"refTime":"2024-10-21T21:00:00:Z","depth":0,"parameterNumber":2,"parameterNumberName":"U-component_of_WINDS"},"data":[0,0,0,0,0,0,0,0,0,0,0,0,0,0,0,0,0,0,0,0,0,0,0,0,0,0,0,0,0,0,0,0,0,0,0,0,0,0,0,0,0,0,0,0,0,0,0,0,0,0,0,0,0,0,0,0,0,0,-2.1773,-2.1773,0,-2.1798,-2.1799,-2.1799,-2.1757,-2.1756,-2.1754,-2.1753,-2.1779,-2.1781,-2.1783,0,0,0,0,0,0,0,0,0,0,0,0,0,-2.1688,-2.169,-2.1773,-2.1773,-2.1774,-2.1798,-2.1799,-2.1799,-2.1757,-2.1756,-2.1754,-2.1752,-2.1778,-2.1781,-2.1783,0,0,0,0,0,0,0,0,0,0,0,0,0,-2.1721,-2.1691,-2.1773,-2.1756,-2.1754,-2.1798,-2.1799,-2.1799,-2.1758,-2.1756,-2.1754,-2.1752,-2.1778,-2.1781,-2.1784,-2.1845,0,0,-2.1793,-2.1794,0,0,0,0,0,0,0,0,-2.1719,-2.1724,-2.1758,-2.1757,-2.1756,-2.1772,-2.1778,-2.1815,-2.1758,-2.1757,-2.1753,-2.175,-2.1779,-2.1781,-2.1791,-2.1846,-2.1847,-2.1793,-2.1795,-2.1796,-2.1797,0,0,0,0,0,0,0,-2.1717,-2.1722,-2.1783,-2.1758,-2.1757,-2.1747,-2.1749,-2.1785,-2.1779,-2.1757,-2.1754,-2.1757,-2.1778,-2.1788,-2.1791,-2.1848,-2.1793,-2.1796,-2.1798,-2.1799,-2.1957,-2.1959,0,0,0,0,0,0,-2.1717,-2.1721,-2.1782,-2.1784,-2.1732,-2.175,-2.1753,-2.1769,-2.1779,-2.1778,-2.1759,-2.1755,-2.1784,-2.1788,-2.1792,-2.1866,-2.1796,-2.1799,-2.1801,-2.1955,-2.1958,-2.196,0,0,0,0,0,0,-2.1715,-2.1722,-2.1781,-2.1752,-2.1758,-2.1754,-2.1773,-2.1771,-2.1781,-2.1781,-2.1779,-2.1771,-2.1782,-2.1788,-2.1833,-2.1866,-2.18,-2.1803,-2.1952,-2.1956,-2.1959,-2.2014,0,0,0,0,0,0,-2.1713,-2.1722,-2.1745,-2.1752,-2.176,-2.1821,-2.1775,-2.1773,-2.1787,-2.1782,-2.1791,-2.1791,-2.1781,-2.1828,-2.1836,-2.1869,-2.1806,-2.1949,-2.1953,-2.1958,-2.201,-2.202,-2.2028,0,0,0,0,0,-2.171,-2.176,-2.1747,-2.1754,-2.1789,-2.1823,-2.1828,-2.1816,-2.179,-2.1813,-2.1813,-2.1791,-2.1861,-2.1833,-2.1841,-2.1876,-2.1947,-2.1952,-2.1957,-2.2006,-2.2018,-2.2028,0,0,0,0,0,0,-2.1756,-2.176,-2.1746,-2.1799,-2.1812,-2.1816,-2.1846,-2.1828,-2.1848,-2.1843,-2.1827,-2.1829,-2.1878,-2.1881,-2.185,-2.1937,-2.19,-2.1907,-2.1934,-2.1945,-2.1954,-2.1953,-2.1808,0,0,0,0,0,-2.1773,-2.18,-2.1802,-2.1849,-2.1856,-2.185,-2.1864,-2.1854,-2.1866,-2.1871,-2.1874,-2.1886,-2.1911,-2.1928,-2.1951,-2.2009,-2.2012,-2.2038,-2.2047,-2.2054,-2.2061,-2.2094,-2.2106,-2.1978,-2.1978,-2.1978,0,0,-2.1807,-2.1812,-2.1831,-2.1859,-2.1867,-2.1896,-2.1854,-2.1887,-2.1909,-2.1876,-2.1919,-2.1921,-2.1934,-2.1987,-2.201,-2.1991,-2.2097,-2.2061,-2.2067,-2.207,-2.2101,-2.2113,-2.2124,-2.1981,-2.1981,-2.198,0,0,-2.1885,-2.1891,-2.1932,-2.1941,-2.1954,-2.195,-2.196,-2.1968,-2.1968,-2.2011,-2.1988,-2.2013,-2.2056,-2.2067,-2.2078,-2.2161,-2.2142,-2.2169,-2.2217,-2.225,-2.226,-2.2269,-2.23,-2.2311,-2.2176,-2.2176,-2.2176,0,-2.1926,-2.1969,-2.1955,-2.199,-2.2003,-2.1975,-2.2017,-2.2026,-2.2046,-2.2056,-2.2034,-2.2089,-2.2095,-2.2151,-2.2172,-2.2181,-2.2192,-2.2168,-2.226,-2.2268,-2.2277,-2.2306,-2.2318,-2.2179,-2.2179,-2.2178,-2.2178,0,-2.202,-2.2051,-2.2082,-2.2103,-2.2119,-2.2157,-2.2149,-2.2168,-2.2156,-2.2155,-2.22,-2.2206,-2.2231,-2.2243,-2.2231,-2.2298,-2.2286,-2.2262,-2.2224,-2.2292,-2.232,-2.2331,-2.2184,-2.2183,-2.2182,-2.2181,0,0,-2.2128,-2.2141,-2.2153,-2.2163,-2.2175,-2.2199,-2.2236,-2.226,-2.2278,-2.2292,-2.2324,-2.2361,-2.234,-2.2353,-2.2342,-2.237,-2.2438,-2.2343,-2.2344,-2.2362,-2.2513,-2.2532,-2.2545,-2.2425,-2.2427,-2.2428,-2.2513,0,-2.2207,-2.2271,-2.226,-2.2323,-2.2352,-2.2325,-2.2358,-2.237,-2.2369,-2.2394,-2.2392,-2.242,-2.2389,-2.2397,-2.2424,-2.2424,-2.2468,-2.2418,-2.2455,-2.2457,-2.2454,-2.2559,-2.2579,-2.2658,-2.2523,-2.2525,-2.2526,0,-2.2308,-2.2327,-2.2393,-2.2403,-2.2415,-2.2444,-2.2466,-2.249,-2.2503,-2.25,-2.2515,-2.25,-2.2537,-2.2498,-2.255,-2.2516,-2.253,-2.2533,-2.2536,-2.254,-2.2497,-2.2568,-2.2683,-2.2695,-2.2543,-2.2541,-2.254,0,-2.2382,-2.2425,-2.247,-2.2479,-2.2491,-2.2512,-2.2518,-2.2529,-2.2545,-2.2564,-2.2575,-2.2598,-2.2611,-2.2629,-2.2621,-2.2593,-2.2676,-2.2635,-2.2676,-2.2676,-2.2695,-2.2695,-2.2816,-2.2702,-2.2702,-2.2702,-2.2702,0,-2.2472,-2.2514,-2.2504,-2.2532,-2.2579,-2.2565,-2.2611,-2.2614,-2.2624,-2.2653,-2.2631,-2.2658,-2.2644,-2.2671,-2.2664,-2.271,-2.2715,-2.2715,-2.2713,-2.2718,-2.2718,-2.2728,-2.2723,-2.2705,-2.2704,-2.2704,-2.2703,0,-2.2564,-2.2558,-2.2607,-2.2614,-2.2617,-2.2651,-2.2658,-2.2684,-2.2682,-2.2719,-2.2727,-2.2723,-2.2754,-2.2747,-2.2779,-2.2775,-2.2833,-2.2823,-2.2829,-2.2827,-2.2869,-2.2866,-2.3002,-2.302,-2.2893,-2.2894,-2.2895,0,-2.2623,-2.2654,-2.2666,-2.2684,-2.2692,-2.272,-2.2737,-2.2725,-2.2743,-2.276,-2.2785,-2.2813,-2.2836,-2.2885,-2.2886,-2.2911,-2.2903,-2.2949,-2.2907,-2.2911,-2.2906,-2.2905,-2.2909,-2.2958,-2.2959,-2.2961,-2.2961,0,-2.2728,-2.2724,-2.2749,-2.2773,-2.2794,-2.2812,-2.2828,-2.2844,-2.2833,-2.2855,-2.2886,-2.2903,-2.2937,-2.2966,-2.2989,-2.2995,-2.2978,-2.2975,-2.2986,-2.2992,-2.2995,-2.2996,-2.2853,-2.2972,-2.2971,-2.297,-2.297,-2.2969,-2.2806,-2.2834,-2.2847,-2.2875,-2.2886,-2.2902,-2.2928,-2.293,-2.2956,-2.2983,-2.2974,-2.301,-2.3022,-2.3052,-2.3062,-2.309,-2.3072,-2.3088,-2.3092,-2.3097,-2.3103,-2.2989,-2.3094,-2.3093,-2.3093,-2.3093,-2.3092,0,-2.2912,-2.2919,-2.2946,-2.297,-2.2993,-2.2973,-2.299,-2.3011,-2.3043,-2.3056,-2.3079,-2.3115,-2.3143,-2.3147,-2.3173,-2.3195,-2.3188,-2.3203,-2.3202,-2.3204,-2.3116,-2.3104,-2.3209,-2.3209,-2.3209,-2.3208,-2.3208,-2.3208,-2.297,-2.3017,-2.3014,-2.3066,-2.3073,-2.3108,-2.312,-2.3135,-2.3146,-2.3188,-2.3211,-2.3213,-2.3223,-2.325,-2.3276,-2.3276,-2.3288,-2.3306,-2.3304,-2.3221,-2.321,-2.3199,-2.3188,-2.3308,-2.3309,-2.339,-2.3391,-2.3391]},{"header":{"parameterUnit":"m.s-1","parameterCategory":1,"la1":30.2991,"la2":30.254,"lo1":-89.0895,"lo2":-89.0444,"dy":0.0017,"dx":0.0017,"nx":28,"ny":28,"refTime":"2024-10-21T21:00:00:Z","depth":0,"parameterNumber":3,"parameterNumberName":"V-component_of_WINDS"},"data":[0,0,0,0,0,0,0,0,0,0,0,0,0,0,0,0,0,0,0,0,0,0,0,0,0,0,0,0,0,0,0,0,0,0,0,0,0,0,0,0,0,0,0,0,0,0,0,0,0,0,0,0,0,0,0,0,0,0,-1.5237,-1.5237,0,-1.5226,-1.5225,-1.5225,-1.518,-1.5179,-1.5178,-1.5177,-1.5167,-1.5167,-1.5168,0,0,0,0,0,0,0,0,0,0,0,0,0,-1.5219,-1.522,-1.5237,-1.5237,-1.5236,-1.5226,-1.5225,-1.5225,-1.518,-1.5179,-1.5178,-1.5176,-1.5166,-1.5167,-1.5168,0,0,0,0,0,0,0,0,0,0,0,0,0,-1.5219,-1.522,-1.5237,-1.5213,-1.521,-1.5226,-1.5225,-1.5225,-1.518,-1.5179,-1.5177,-1.5176,-1.5166,-1.5167,-1.5168,-1.5206,0,0,-1.5171,-1.5172,0,0,0,0,0,0,0,0,-1.522,-1.522,-1.5216,-1.5214,-1.5212,-1.5202,-1.5215,-1.5219,-1.5181,-1.5192,-1.5177,-1.5175,-1.518,-1.518,-1.5181,-1.5206,-1.5205,-1.5171,-1.5172,-1.5172,-1.5173,0,0,0,0,0,0,0,-1.522,-1.522,-1.5232,-1.5216,-1.5213,-1.5202,-1.5201,-1.5216,-1.5195,-1.5191,-1.5187,-1.5187,-1.5178,-1.518,-1.518,-1.5205,-1.5171,-1.5172,-1.5173,-1.5173,-1.526,-1.5262,0,0,0,0,0,0,-1.5223,-1.5221,-1.5233,-1.5232,-1.5212,-1.5204,-1.5202,-1.5207,-1.5195,-1.5191,-1.5188,-1.5185,-1.5179,-1.5179,-1.518,-1.5224,-1.5172,-1.5173,-1.5174,-1.5258,-1.526,-1.5262,0,0,0,0,0,0,-1.5223,-1.5224,-1.5233,-1.5225,-1.5226,-1.5206,-1.5212,-1.5208,-1.5209,-1.5192,-1.5189,-1.5194,-1.5178,-1.5178,-1.52,-1.5223,-1.5174,-1.5175,-1.5256,-1.5259,-1.5261,-1.5311,0,0,0,0,0,0,-1.5222,-1.5225,-1.5239,-1.5226,-1.5226,-1.5253,-1.5213,-1.5209,-1.5211,-1.5207,-1.5197,-1.5194,-1.5177,-1.5199,-1.5201,-1.5223,-1.5176,-1.5254,-1.5258,-1.5261,-1.5308,-1.5315,-1.5322,0,0,0,0,0,-1.5222,-1.5254,-1.524,-1.5241,-1.5244,-1.5255,-1.5255,-1.5234,-1.5213,-1.5227,-1.5216,-1.5194,-1.522,-1.5201,-1.5203,-1.5226,-1.5253,-1.5257,-1.526,-1.5305,-1.5314,-1.5322,0,0,0,0,0,0,-1.527,-1.5252,-1.5236,-1.5264,-1.5261,-1.5247,-1.5264,-1.5245,-1.5248,-1.5244,-1.5218,-1.5216,-1.5242,-1.5236,-1.5216,-1.5262,-1.5232,-1.5237,-1.5265,-1.5274,-1.5281,-1.5282,-1.5177,0,0,0,0,0,-1.5284,-1.5294,-1.5278,-1.5304,-1.5303,-1.5284,-1.5288,-1.5273,-1.5269,-1.5267,-1.5258,-1.5255,-1.5262,-1.5268,-1.5274,-1.5306,-1.5304,-1.5323,-1.5331,-1.5336,-1.5341,-1.5358,-1.5366,-1.5275,-1.5275,-1.5275,0,0,-1.5313,-1.5304,-1.5312,-1.5314,-1.531,-1.5321,-1.5284,-1.5297,-1.5305,-1.5269,-1.5289,-1.5282,-1.5277,-1.5304,-1.5316,-1.5301,-1.5365,-1.5341,-1.5346,-1.5347,-1.5362,-1.5371,-1.5379,-1.5277,-1.5277,-1.5276,0,0,-1.5372,-1.5366,-1.5387,-1.5384,-1.5378,-1.5364,-1.537,-1.5358,-1.5352,-1.5371,-1.5344,-1.5353,-1.5367,-1.5364,-1.5365,-1.5422,-1.5401,-1.5424,-1.5462,-1.5479,-1.5486,-1.5492,-1.5513,-1.552,-1.5429,-1.5429,-1.5429,0,-1.5409,-1.5424,-1.5401,-1.5416,-1.5418,-1.5385,-1.5407,-1.5404,-1.5401,-1.5403,-1.5385,-1.5401,-1.5395,-1.5422,-1.5435,-1.5437,-1.5442,-1.5426,-1.5487,-1.5493,-1.5498,-1.5517,-1.5525,-1.5432,-1.5431,-1.5431,-1.5431,0,-1.547,-1.5481,-1.55,-1.5496,-1.55,-1.5518,-1.5498,-1.5504,-1.5488,-1.5477,-1.5497,-1.5489,-1.5492,-1.5497,-1.5482,-1.5521,-1.5512,-1.5491,-1.546,-1.551,-1.5528,-1.5535,-1.5436,-1.5435,-1.5434,-1.5433,0,0,-1.556,-1.5542,-1.555,-1.5548,-1.5538,-1.5546,-1.5563,-1.5566,-1.5572,-1.5571,-1.5584,-1.5596,-1.5576,-1.5577,-1.5561,-1.5576,-1.5622,-1.5553,-1.5552,-1.5566,-1.5665,-1.5681,-1.569,-1.5608,-1.5609,-1.561,-1.5665,0,-1.5616,-1.5643,-1.5622,-1.5654,-1.5664,-1.5633,-1.5647,-1.5643,-1.5633,-1.564,-1.5629,-1.5638,-1.5611,-1.5611,-1.5624,-1.5613,-1.5641,-1.5609,-1.5621,-1.5621,-1.5623,-1.5699,-1.5716,-1.5768,-1.5672,-1.5673,-1.5674,0,-1.5685,-1.5686,-1.5718,-1.5706,-1.5709,-1.5723,-1.5724,-1.5731,-1.5726,-1.5717,-1.5718,-1.5698,-1.5713,-1.5683,-1.5705,-1.5683,-1.5687,-1.5682,-1.5684,-1.5684,-1.5651,-1.5702,-1.5785,-1.5793,-1.5685,-1.5684,-1.5683,0,-1.5747,-1.5756,-1.5777,-1.5776,-1.5762,-1.5772,-1.5767,-1.576,-1.5763,-1.5764,-1.5766,-1.5769,-1.577,-1.5773,-1.5755,-1.5734,-1.5779,-1.5747,-1.5773,-1.5773,-1.5784,-1.5784,-1.5869,-1.5786,-1.5786,-1.5785,-1.5785,0,-1.5812,-1.5833,-1.5804,-1.5817,-1.584,-1.5815,-1.5838,-1.583,-1.5824,-1.5835,-1.5808,-1.5818,-1.5793,-1.5801,-1.5787,-1.5807,-1.5808,-1.5802,-1.5798,-1.5804,-1.5805,-1.5806,-1.5803,-1.5787,-1.5787,-1.5787,-1.5786,0,-1.5886,-1.5867,-1.5887,-1.5872,-1.5869,-1.5887,-1.5874,-1.5885,-1.5873,-1.5886,-1.5888,-1.5869,-1.5877,-1.5859,-1.5864,-1.5855,-1.5884,-1.5874,-1.5885,-1.5882,-1.5909,-1.5907,-1.5999,-1.6009,-1.5919,-1.592,-1.5921,0,-1.5929,-1.5944,-1.593,-1.5935,-1.5931,-1.594,-1.5942,-1.5919,-1.5923,-1.5918,-1.593,-1.5935,-1.5938,-1.5953,-1.594,-1.5944,-1.5934,-1.5966,-1.5935,-1.5941,-1.5935,-1.5934,-1.5936,-1.5972,-1.5974,-1.5974,-1.5975,0,-1.6007,-1.5997,-1.6001,-1.6003,-1.6007,-1.6007,-1.6005,-1.6011,-1.5986,-1.5992,-1.5999,-1.6002,-1.6007,-1.6013,-1.6014,-1.6009,-1.5988,-1.5985,-1.5991,-1.5998,-1.6005,-1.6002,-1.5903,-1.5983,-1.5982,-1.5982,-1.5981,-1.5981,-1.6066,-1.6078,-1.6071,-1.6077,-1.6073,-1.6072,-1.6081,-1.607,-1.6075,-1.6077,-1.6063,-1.6074,-1.6068,-1.6067,-1.6064,-1.6072,-1.6058,-1.6067,-1.6069,-1.6072,-1.6077,-1.6003,-1.6072,-1.6072,-1.6072,-1.6072,-1.6072,0,-1.6143,-1.6137,-1.6142,-1.614,-1.6145,-1.6124,-1.6121,-1.6127,-1.6136,-1.6132,-1.6135,-1.6144,-1.615,-1.6137,-1.614,-1.615,-1.614,-1.6151,-1.6151,-1.615,-1.6089,-1.6083,-1.6159,-1.6159,-1.6159,-1.6159,-1.6159,-1.6159,-1.6184,-1.6203,-1.6192,-1.6209,-1.6202,-1.6212,-1.6212,-1.6211,-1.6207,-1.6218,-1.6222,-1.6213,-1.6206,-1.6208,-1.6213,-1.6209,-1.6212,-1.6226,-1.6219,-1.6163,-1.6154,-1.6146,-1.6141,-1.6227,-1.6227,-1.6279,-1.628,-1.628]}]]